Regional Weather Roundup
Issued by NWS Midland/Odessa, TX

Skip options and go directly to product.
Home | Oldest Version | Next Version | Current Version | All | Text Only | Save Text | Print | Product List | Glossary On

Skip product version selection by date and time.   
298
ASUS44 KMAF 162210
RWRMAF
MIDLAND AREA WEATHER ROUNDUP
NATIONAL WEATHER SERVICE MIDLAND TX
400 PM CST TUE DEC 16 2014

...IN SOUTHWEST TEXAS AND SOUTHEAST NEW MEXICO...

CITY           SKY/WX    TMP DP  RH WIND       PRES   REMARKS
ALPINE         MOSUNNY   58  40  51 S9        30.19S
ANDREWS        CLOUDY    52  27  38 SE12G17   30.20S
ARTESIA        PTSUNNY   50  28  43 SE9       30.18F
BIG SPRING     CLOUDY    56  26  31 E10       30.23F
CARLSBAD       PTSUNNY   51  28  41 SE9       30.16F
DRYDEN           N/A     59  31  34 E16       30.16S
FORT STOCKTON  MOSUNNY   58  30  34 SE14      30.15F
GUAD PASS      NOT AVBL
HOBBS          CLOUDY    48  27  43 E9        30.20F
MARFA          MOSUNNY   61  41  48 SE12G18   30.15R
MIDLAND AIRPK  CLOUDY    55  27  33 E9        30.20F
MIDLAND INTL   PTSUNNY   55  27  34 SE15      30.18F
ODESSA         MOSUNNY   54  25  32 SE14      30.19F
PECOS          PTSUNNY   57  30  35 E13       30.15F
PRESIDIO       FAIR      68  43  39 NE12G18   30.05S
SEMINOLE       CLOUDY    50  26  40 SE8       30.21F
SNYDER         CLOUDY    52  28  39 E9        30.24F
WINK           MOSUNNY   56  26  31 SE13      30.15F
$$
...OTHER STATIONS IN TEXAS...

CITY           SKY/WX    TMP DP  RH WIND       PRES   REMARKS
ABILENE        PTSUNNY   55  27  34 NE6       30.26R
AMARILLO       SUNNY     51  21  30 S13       30.21F
AUSTIN         PTSUNNY   60  35  39 NE10      30.24S
BROWNSVILLE    CLOUDY    73  63  70 E16G23    30.15S
CORPUS CHRISTI PTSUNNY   65  41  41 E15       30.20F
DALLAS FTW     PTSUNNY   53  30  41 N6        30.28F
DEL RIO        CLOUDY    57  34  41 SE6       30.20F
EL PASO        CLOUDY    61  25  25 E8        30.05F
HOUSTON INT    MOSUNNY   64  36  35 N12       30.23R
LUBBOCK        PTSUNNY   52  25  35 S9        30.21F
SAN ANGELO     PTSUNNY   56  30  37 E9        30.22F
SAN ANTONIO    CLOUDY    64  35  34 E10       30.23S
WACO           SUNNY     56  32  40 N10       30.27F
WICHITA FALLS  NOT AVBL
$$
...OTHER LOCATIONS IN NEW MEXICO...

CITY           SKY/WX    TMP DP  RH WIND       PRES   REMARKS
ALAMAGORDO     CLOUDY    57  18  21 NE3       30.07F
ALBUQUERQUE    CLOUDY    44  23  43 N6        30.13F
CANNON AFB     CLOUDY    50  23  34 S10       30.18F
CLOVIS         PTSUNNY   48  23  37 S14       30.18F
HOLLOMAN AFB   PTSUNNY   58  21  23 VRB6      30.06F
ROSWELL        PTSUNNY   50  27  40 S8        30.17F
RUIDOSO        PTSUNNY   41  21  45 SE9       30.16F WCI  35
SANTA FE       CLOUDY    40  22  48 SE7       30.14S WCI  35
TRUTH OR CONSE MOSUNNY   54  19  25 VRB5      30.07F
TUCUMCARI      PTSUNNY   50  23  34 S9        30.16F
$$

USA.gov is the U.S. government's official web portal to all federal, state and local government web resources and services.